DELTA 1 DEB, 10711

Orbit data source: Space-Track

DELTA 1 DEB, 10711 is space debris in SSO originally from a launch on Thu, 29 Jul 1976 UTC launched from the Air Force Western Test Range (AFWTR). Debris objects in space refer to the collection of defunct objects orbiting the Earth. Examples of debris include non-operational satellites, rocket bodies, and fragments generated from explosions, collisions, or faulty payload assembly.

Loading next visibility...
Identifier
10711, 1976-077AG
Orbit
SSO
Last TLE update
11 hours ago
Origin
Manufacturer
Unknown
Mission
Spacecraft
Bus & Motor
Unknown
Mass
Unknown
Launch date (UTC)
1976-07-29 (49 years ago)
Launch vehicle
Unknown
Launch site
Air Force Western Test Range (AFWTR)
Object type
Payload
Rocket body
Debris
Shape & HBR
Unknown
Radar Cross Section
Small (<0.1 m²)

Expand to show TLE details & history

TLE from 11 hours ago
0 DELTA 1 DEB
1 10711U 76077AG  25128.89890373 -.00000033  00000-0  10236-3 0  9994
2 10711 102.4426 107.4103 0063880  77.3375 343.6272 12.29239405189321
Epoch: 2025-05-08T21:34Z
Definitive object data (Epoch: 2025-05-08T21:34:25.282Z)
Latitude
58.52925°
Longitude
-104.17871°
Altitude
1,513.624 km
Speed
7.135 km/s
True Right ascension
05h 45m 33s
True Declination
58° 23' 26"
Sunlit
Object was in daylight at TLE epoch
Visualization TLE readout
Latitude
-47.72067°
Longitude
83.31266°
Altitude
1,615.617 km
Speed
7.042 km/s
Apparent Right ascension
22h 36m 34s
Apparent Declination
-75° 48' 20"
Sunlit
Object is in full shadow
Visualization observer readout
Local Sidereal Time
16:24:07
Azimuth
161.576° S
Elevation
-39.22°
Doppler factor
1
Orbital elements
Apogee altitude
1,600.812 km
Perigee altitude
1,499.52 km
Semi-major axis
7,928.303 km
Eccentricity
0.006388
Inclination
102.4426°
RAAN
107.4103°
Arg. of periapsis
77.3375°
True anomaly
343.41926°
Mean anomaly
343.6272°
Eccentric anomaly
343.52339°
Mean motion
3.07449 °/min
BSTAR
0.00010236
Orbital period
117.09 mins
Loading maneuver chart data...
Loading SW <> Apogee altitude chart data...
Loading historical data...
Loading historical data...
Loading historical data...
Loading historical data...
Loading historical data...
Loading historical data...
Loading historical data...

DELTA 1 DEB Visibility forecast

Observer location: undefined°, undefined°

Span
Click to sort rows by Start time (UTC) header in descending order
Start Az.
Max El. time (UTC)
Max El. Az.
Max El.
End time (UTC)
End Az.
9 mins2025-05-09 09:39:59.108Z60.199° ENE2025-05-09 09:43:59.108Z89.988° E15.787°2025-05-09 09:48:59.108Z126.372° SE
15 mins2025-05-09 11:32:59.108Z19.757° NNE2025-05-09 11:39:59.108Z98.512° ESE44.909°2025-05-09 11:47:59.108Z198.104° SSW
11 mins2025-05-09 13:28:59.108Z348.52° N2025-05-09 13:33:59.108Z307.19° NW21.628°2025-05-09 13:39:59.108Z261.621° W
12 mins2025-05-09 20:50:59.108Z108.054° ESE2025-05-09 20:56:59.108Z52.729° ENE27.96°2025-05-09 21:02:59.108Z2.101° NNE
15 mins2025-05-09 22:43:59.108Z178.235° S2025-05-09 22:50:59.108Z254.225° W41.311°2025-05-09 22:58:59.108Z334.439° NNW
|